Location: Agadir Mansour Mhndou
(31.2424°N, 8.7730°W)
Time: 05:57:39
(UTC+00:00)

DNEPR-1 R/B - Pass Details

Date: 16 October 2021
Orbit: 587 x 1334 km, 64.6° (Epoch: 28 November)

Event Time Altitude Azimuth Distance (km) Brightness Sun altitude
Rises 18:23:41 0° 331° (NNW) 2,991 7.4 -5.4°
Reaches altitude 10° 18:25:49 10° 331° (NNW) 2,147 6.6 -5.9°
Maximum altitude 18:30:41 86° 244° (WSW) 786 4.1 -6.9°
Drops below altitude 10° 18:36:35 10° 155° (SSE) 2,582 6.5 -8.1°
Sets 18:39:22 0° 155° (SSE) 3,648 7.3 -8.7°
